www.pogodaiklimat.ru

Погода и климат >> Архив погоды >> Азербайджан >> Астара


ПОГОДА в Астаре

  • Прогноз погоды в Астаре
  • Монитор погоды в Астаре

АРХИВ ПОГОДЫ в Астаре

Время (UTC), дата Ветер
(напр.,м/с)
 
Видим.   Явления Облачность Т
(С)
Тd
(С)
f
(%)
Тe
(С)
Тes
(С)
Комфортность P
(гПа)
Po
(гПа)
Тmin
(С)
Tmax
(С)
R
(мм)
R24
(мм)
S
(см)
12 11.08 ЮВ 2 50 км 4/0
[Ac trans]
+27.5 +17.9 56 +32 +39 очень
душно
1014.4 1016.9
18 11.08 З 1 4000 м ясно +23.9 +18.4 71 +28 +28 душно 1016.7 1019.2 +29.4
00 12.08 З 1 4000 м ясно +20.2 +15.5 74 +24 +24 комфорт 1015.6 1018.2
06 12.08 Ю 2 50 км ясно +27.0 +18.1 58 +32 +43 очень
душно
1016.2 1018.7 +19.9
12 12.08 ЮВ 3 20 км 4/4 600 м
[Cu hum]
+27.7 +20.4 64 +34 +39 очень
душно
1014.9 1017.4
18 12.08 ЮВ 2 4000 м 6/6 600 м
[Sc]
+25.4 +19.8 71 +31 +31 очень
душно
1016.3 1018.8 +29.1
00 13.08 З 1 4000 м слаб. ливневой дождь 10/10 600 м
[Cb cap]
+21.0 +20.2 95 +27 +27 душно 1016.3 1018.8
03 13.08 З 1 20 км {ливн. осадки} 10/10 600 м
[Cb cap]
+21.8 +20.4 92 +28 +28 душно 1016.7 1019.3
06 13.08 З 1 50 км 5/5 600 м
[Cb cap]
+24.9 +18.8 69 +30 +37 душно 1017.7 1020.2 +20.8 3
12 13.08 Ю 3 20 км 6/6 600 м
[Sc Ac trans]
+27.9 +17.6 54 +32 +35 душно 1016.2 1018.7
18 13.08 С 1 4000 м ясно +26.0 +19.7 68 +32 +32 очень
душно
1016.2 1018.7 +28.7
00 14.08 З 1 4000 м ясно +20.0 +16.6 81 +24 +24 комфорт 1016.0 1018.6
06 14.08 Ю 1 50 км 1/1 600 м
[Cu hum]
+27.3 +19.3 62 +33 +45 очень
душно
1017.2 1019.7 +19.4
12 14.08 Ю 3 50 км 3/3 600 м
[Cu hum]
+27.9 +22.0 70 +36 +41 очень
душно
1015.0 1017.5
18 14.08 ЮЗ 2 4000 м 10/10 600 м
[Sc]
+26.1 +21.9 78 +34 +34 очень
душно
1014.7 1017.2 +28.9
00 15.08 З 1 4000 м 4/4 600 м
[Cb cap]
+22.6 +20.3 87 +29 +29 очень
душно
1013.5 1016.0
06 15.08 ЮВ 2 50 км ясно +27.4 +21.4 70 +35 +46 очень
душно
1014.1 1016.6 +21.5
12 15.08 Ю 5 20 км 1/1 600 м
[Cu hum]
+28.6 +21.8 67 +37 +41 очень
душно
1012.2 1014.7
18 15.08 Ю 3 4000 м 6/0
[Ac trans]
+26.3 +22.1 78 +34 +34 очень
душно
1012.9 1015.4 +29.7
00 16.08 З 1 4000 м ясно +23.5 +21.0 86 +30 +30 очень
душно
1012.1 1014.6
06 16.08 Ю 3 50 км 1/1 600 м
[Cu hum]
+27.5 +21.3 69 +35 +43 очень
душно
1011.8 1014.3 +21.9
12 16.08 Ю 3 50 км 1/1 600 м
[Cu hum]
+28.6 +21.5 65 +36 +43 очень
душно
1008.9 1011.4
18 16.08 Ю 2 4000 м 9/9 600 м
[Sc]
+26.6 +21.2 72 +34 +34 очень
душно
1007.5 1010.0 +29.4
00 17.08 З 1 4000 м 6/6 600 м
[Sc]
+23.2 +19.5 80 +30 +30 очень
душно
1007.4 1009.9
06 17.08 СВ 1 50 км ясно +28.7 +22.0 67 +37 +50 очень
душно
1008.8 1011.3 +21.3
12 17.08 ЮВ 2 50 км ясно +29.2 +20.0 58 +36 +45 очень
душно
1007.3 1009.8
18 17.08 З 2 4000 м ясно +23.5 +20.0 81 +29 +29 душно 1008.3 1010.8 +30.2
00 18.08 СЗ 2 4000 м ясно +21.1 +9.6 48 +22 +22 комфорт 1008.5 1011.1
06 18.08 СВ 2 50 км ясно +29.0 +20.5 60 +36 +47 очень
душно
1010.6 1013.1 +18.5

 

Местоположение метеостанции Астара (Азербайджан): широта 38.45 долгота 48.88 высота над уровнем моря -22 м.

В архиве по умолчанию представлена погода в Астаре за последнюю неделю. Архивные данные за месяц целиком и за предыдущие месяцы, начиная с января 2011 года, Вы можете получить, выбрав интересующий диапазон дат из раскрывающегося списка и нажав кнопку "Ввод!".


*Определитесь, кто Вы:
робот инопланетянин человек

Внимание! Время в таблицах - всемирное. Для получения местного времени необходимо прибавить поправку, которая равна 4 ч.

Смотрите также архив погоды в соседних городах и на ближайших метеорологических станциях:

Погода в Лянкяране (Азербайджан) (31 км)
Погода в Ардебиле (Иран) (57 км)
Погода в Нефтечале (Азербайджан) (110 км)
Погода в Энзели (Иран) (121 км)
Погода в Серабе (Иран) (131 км)
Погода в Миане (Иран) (152 км)
Погода в Реште (Иран) (154 км)
Погода в Парсабаде (Иран) (157 км)
Погода в Ахаре (Иран) (158 км)
Погода в Алате (Азербайджан) (175 км)

Пояснения к столбцам:

Ветер - указаны скорость ветра в м/с - средняя за 10 мин, порывы в срок и между сроками (в фигурных скобках) и направление, откуда дует ветер: С - северный, СВ - северо-восточный, В - восточный, ЮВ - юго-восточный, Ю - южный, ЮЗ - юго-западный, З - западный, СЗ - северо-западный.
Видимость - горизонтальная дальность видимости в метрах или километрах. При видимости от 1 до 10 км при отсутствии осадков обычно наблюдается дымка, при ухудшении видимости до 1 км и менее - туман. В сухую погоду видимость может ухудшаться дымом, пылью или мглою.
Явления - указаны атмосферные явления, наблюдавшиеся в срок или в последний час перед сроком; фигурными скобками обозначены явления, наблюдавшиеся между сроками (за 1-3 часа до срока); квадратными скобками обозначены град или гололедные отложения с указанием их диаметра в мм.
Облачность - указаны через наклонную черту общая и нижняя облачность в баллах и высота нижней границы облаков в метрах; квадратными скобками обозначены формы облаков: Ci - перистые, Cs - перисто-слоистые, Cc - перисто-кучевые, Ac - высококучевые, As - высокослоистые, Sc - слоисто-кучевые, Ns - слоисто-дождевые, Cu - кучевые, Cb - кучево-дождевые. Подробнее классификацию облаков см. в Атласе облаков (PDF).
T - Температура воздуха - температура, измеренная на высоте 2 м над землей.
Td - Температура точки росы - температура, при понижении до которой содержащийся в воздухе водяной пар достигнет насыщения.
f - Относительная влажность воздуха - влажноcть воздуха, измеренная на высоте 2 м над землей.
Te - Эффективная температура - температура, которую ощущает одетый по сезону человек в тени. Характеристика душности погоды. При расчете учитывается влияние влажности воздуха и скорости ветра на теплоощущения человека.
Tes - Эффективная температура на солнце - температура, которую ощущает человек, с поправкой на солнечный нагрев. Характеристика знойности погоды. Зависит от высоты солнца над горизонтом, облачности и скорости ветра. Ночью, в пасмурную погоду, а также при ветре 12 м/с и более поправка равна нулю.
P - Атмосферное давление - приведенное к уровню моря атмосферное давление.
Po - Атмосферное давление - измеренное на уровне метеостанции атмосферное давление.
Tmin - Минимальная температура - минимум температуры воздуха на высоте 2 м над землей.
Tmax - Максимальная температура - максимум температуры воздуха на высоте 2 м над землей.
R - Количество осадков - Количество выпавших осадков за период времени, мм. При наведении курсора мыши на число - период времени, за который выпало указанное количество осадков.
R24 - Количество осадков - Количество выпавших осадков за 24 часа, мм.
S - Снежный покров - Высота снежного покрова, см. При наведении курсора мыши на число - состояние снежного покрова и степень покрытия местности в баллах.